Regional Weather Roundup
Issued by NWS State College, PA

Home | Current Version | Previous Version | Graphics & Text | Print | Product List | Glossary Off
Versions: 1 2 3 4 5 6 7 8 9 10 11 12 13 14 15 16 17 18 19 20 21 22 23 24 25 26 27 28 29 30 31 32 33 34 35 36 37 38 39 40 41 42 43 44 45 46 47 48 49 50

000
ASUS41 KCTP 242310
RWRCTP

REGIONAL WEATHER ROUNDUP
NATIONAL WEATHER SERVICE STATE COLLEGE PA
700 PM EDT FRI OCT 24 2014

Note: "fair" indicates few or no clouds below 12,000 feet with no
significant weather and/or obstructions to visibility.

* = STATION THAT DOES NOT REPORT PRECIPITATION /E.G. RAIN...SNOW...ETC/
    THUNDER OR FOG.

PAZ002>004-007>009-013>016-020>023-029>032-250000-
WESTERN PENNSYLVANIA

CITY           SKY/WX    TMP DP  RH WIND       PRES   REMARKS
ERIE           CLEAR     53  44  71 SW3       29.99S
MEADVILLE      CLEAR     52  39  61 W5        29.99S
FRANKLIN*      CLEAR     54  37  54 SW3       30.00S
NEW CASTLE       N/A     54  38  54 CALM      30.01R
BEAVER COUNTY  CLEAR     54  37  54 W3        30.00S
BUTLER*        CLEAR     54  36  50 W3        30.01S
PITTSBURGH INT PTCLDY    56  36  47 W5        30.00R
PITTSBURGH     CLEAR     56  34  43 W6        30.00R
INDIANA*       PTCLDY    52  39  62 CALM      30.03R
LATROBE        PTCLDY    52  39  62 W7        30.01S
WASHINGTON CO* CLEAR     48  39  71 CALM      30.03R
$$

PAZ004>006-010>012-017>019-024>028-033>037-041-042-045-046-049>053-250000-
CENTRAL PENNSYLVANIA

CITY           SKY/WX    TMP DP  RH WIND       PRES   REMARKS
BRADFORD       CLEAR     50  35  56 NW6       29.96R
DUBOIS         PTCLDY    52  35  52 W6        29.96S
CLEARFIELD     PTCLDY    53  36  52 W6        29.97R
JOHNSTOWN      PTCLDY    49  37  63 W10       29.98S
ALTOONA        MOCLDY    51  38  60 W5        29.97R
STATE COLLEGE  CLEAR     55  36  47 NW5       29.94R
WILLIAMSPORT   CLOUDY    63  29  27 NW9       29.88R
SELINSGROVE    MOCLDY    62  33  33 W5        29.89R
FT INDIANTOWN  CLOUDY    62  38  40 W10       29.88R
CAPITAL CITY   CLOUDY    61  35  37 W8        29.90R
HARRISBURG     CLOUDY    58  40  51 NW8       29.88R
YORK           CLOUDY    56  35  45 W5        29.90R
$$

PAZ038>040-043-044-047-048-054-055-060>062-067>071-250000-
EASTERN PENNSYLVANIA

CITY           SKY/WX    TMP DP  RH WIND       PRES   REMARKS
SCRANTON       CLEAR     59  39  47 N13       29.87R
MOUNT POCONO   CLEAR     54  40  59 NW14G24   29.84R
ALLENTOWN      PTCLDY    61  42  49 NW5       29.84R
QUAKERTOWN*    MOCLDY    61  43  51 N3        29.85R
READING        CLOUDY    62  34  35 W8        29.85R
LANCASTER      CLOUDY    59  38  45 W9        29.88R
COATESVILLE    CLOUDY    59  36  41 NW14      29.87R
POTTSTOWN      CLOUDY    62  40  44 VRB5      29.86R
BLUE BELL      MOCLDY    63  45  51 CALM      29.83R
DOYLESTOWN     MOCLDY    61  41  47 NW6       29.83R
WILLOW GROVE   NOT AVBL
NORTH PHILA    MOCLDY    65  42  43 NW5       29.84R
PHILADELPHIA   MOCLDY    65  43  44 W12       29.84R
$$



USA.gov is the U.S. government's official web portal to all federal, state and local government web resources and services.